Date,TemperatureHighF,TemperatureAvgF,TemperatureLowF,DewpointHighF,DewpointAvgF,DewpointLowF,HumidityHigh,HumidityAvg,HumidityLow,PressureMaxIn,PressureMinIn,WindSpeedMaxMPH,WindSpeedAvgMPH,GustSpeedMaxMPH,PrecipitationSumIn
2014-1-1,41.7,33.9,27.0,41.2,33.4,26.5,98,98,98,29.20,29.03,3,0,3,0.00
2014-1-2,52.5,41.6,34.3,51.1,40.9,33.8,98,97,89,29.06,28.76,12,0,12,0.50
2014-1-3,41.7,35.2,27.5,40.9,33.7,27.0,98,94,78,29.12,28.82,13,1,13,0.04
2014-1-4,29.8,25.1,20.7,29.3,24.6,20.2,98,98,98,29.20,29.12,2,0,2,0.00
2014-1-5,32.2,25.9,19.6,31.7,25.3,18.6,98,98,96,29.26,29.09,2,0,2,0.00
2014-1-6,38.7,31.5,24.8,38.2,31.0,24.3,98,98,98,29.09,28.91,3,0,3,0.05
2014-1-7,42.3,37.7,34.7,41.7,37.2,34.2,98,98,98,28.97,28.82,3,0,3,0.50
2014-1-8,42.8,39.7,37.4,42.3,39.2,36.9,98,98,98,28.82,28.52,8,0,8,0.00
2014-1-9,42.8,38.1,34.7,42.1,37.5,34.2,98,98,87,28.82,28.64,17,1,17,0.91
2014-1-10,48.0,42.2,39.9,43.5,40.9,39.3,98,95,75,28.94,28.52,8,2,11,0.50
2014-1-11,47.3,41.5,38.5,46.8,40.1,34.2,98,95,81,28.64,28.32,24,3,24,1.45
2014-1-12,45.5,38.0,32.5,44.6,37.0,32.0,98,96,80,29.12,28.67,16,2,16,1.49
2014-1-13,46.6,45.1,43.5,45.6,44.1,42.2,98,96,92,29.38,29.12,20,4,20,0.41
2014-1-14,47.5,40.0,28.6,45.2,39.2,27.9,98,97,87,29.41,29.32,4,0,4,0.00
2014-1-15,39.7,31.9,27.7,39.0,31.4,27.0,98,98,98,29.32,29.20,3,0,3,0.13
2014-1-16,40.6,31.5,26.1,40.1,31.0,25.6,98,98,98,29.20,29.09,2,0,2,0.00
2014-1-17,39.2,30.8,25.2,38.5,30.3,24.7,98,98,98,29.09,28.94,3,0,3,0.00
2014-1-18,42.3,31.1,25.7,40.0,30.5,25.2,98,98,84,29.03,28.91,6,0,8,0.00
2014-1-19,42.4,31.4,26.2,39.6,30.6,25.8,98,97,77,29.06,28.88,6,0,6,0.00
2014-1-20,49.6,35.1,26.1,37.3,30.5,25.4,98,85,49,29.06,29.00,11,1,11,0.00
2014-1-21,48.9,35.1,27.7,44.9,32.9,27.2,98,92,56,29.09,28.97,24,1,24,0.00
2014-1-22,49.5,38.1,28.2,44.0,36.1,27.7,98,93,72,29.14,29.09,4,1,7,0.09
2014-1-23,55.8,38.0,27.0,38.9,30.9,26.5,98,79,41,29.17,29.09,10,2,11,0.00
2014-1-24,54.1,34.4,26.6,34.6,29.6,26.0,98,85,43,29.17,29.06,4,2,5,0.00
2014-1-25,51.8,32.0,23.9,34.8,28.4,23.2,98,88,48,29.14,29.00,5,1,5,0.04
2014-1-26,51.3,31.6,23.0,44.2,29.2,22.0,98,92,54,29.00,28.85,2,0,2,0.00
2014-1-27,52.5,38.0,25.7,43.3,30.2,25.2,98,77,46,29.00,28.85,12,1,12,0.00
2014-1-28,56.7,45.2,39.0,46.0,40.6,34.7,98,85,58,29.00,28.70,6,1,6,0.29
2014-1-29,48.6,44.4,40.3,48.0,43.6,39.0,98,97,84,28.70,28.44,15,2,15,1.70
2014-1-30,48.4,38.6,34.9,39.4,36.2,33.3,98,92,63,28.73,28.64,13,2,13,1.03
2014-1-31,44.1,37.6,34.5,40.1,36.4,34.0,98,96,80,28.91,28.73,9,1,9,1.03
2014-2-1,45.9,35.2,27.7,41.8,33.8,26.8,98,95,75,28.94,28.82,6,0,6,1.03
2014-2-2,46.8,30.6,21.7,37.0,28.6,20.8,98,93,65,28.82,28.67,8,1,8,1.03
2014-2-3,39.6,31.6,21.6,30.6,22.4,14.0,98,71,43,28.91,28.73,10,2,13,1.03
2014-2-4,34.3,27.5,20.3,24.1,13.3,1.4,92,57,43,29.12,28.88,12,3,12,1.03
2014-2-5,27.9,18.8,13.6,1.9,-2.7,-7.9,44,38,26,29.17,29.00,18,5,18,1.03
2014-2-6,25.0,17.6,14.0,14.5,1.8,-7.3,90,53,35,29.00,28.52,23,6,23,1.03
2014-2-7,41.5,24.4,6.8,26.4,16.3,1.4,88,72,49,28.67,28.50,12,2,12,1.03
2014-2-8,35.1,28.4,24.3,25.3,19.3,13.1,97,70,46,28.76,28.52,15,5,18,0.00
2014-2-9,40.5,31.1,25.3,32.6,27.8,20.9,98,88,68,28.85,28.70,11,1,11,0.00
2014-2-10,42.6,34.8,28.2,41.6,34.2,27.5,98,97,92,28.91,28.82,5,1,5,0.00
2014-2-11,49.3,38.9,34.9,45.6,37.8,34.2,98,96,75,28.94,28.52,6,1,6,0.25
2014-2-12,57.2,43.7,34.9,47.5,39.5,32.8,98,87,49,28.73,28.44,13,2,17,0.41
2014-2-13,55.0,42.8,34.0,46.2,38.7,33.1,98,86,50,28.91,28.58,15,3,18,0.17
2014-2-14,50.0,40.1,31.1,44.5,37.9,30.4,98,92,74,28.76,28.50,16,2,16,0.70
2014-2-15,45.7,36.8,31.5,44.1,35.7,31.0,98,96,80,28.73,28.17,17,3,17,0.75
2014-2-16,47.3,38.6,33.6,39.4,35.2,30.4,98,89,57,28.82,28.50,12,2,12,0.33
2014-2-17,40.8,35.8,32.4,40.1,35.1,31.9,98,97,91,28.76,28.52,13,1,13,1.74
2014-2-18,42.6,36.4,33.6,41.1,35.8,32.8,98,97,82,28.76,28.47,17,0,17,0.79
2014-2-19,41.5,34.2,32.4,38.3,33.1,31.6,98,96,78,28.94,28.70,10,1,10,0.08
2014-2-20,39.7,35.1,32.4,39.2,34.6,31.9,98,98,98,29.00,28.82,8,1,8,0.08
2014-2-21,45.7,37.1,30.2,39.9,32.8,27.2,98,86,52,29.06,28.94,13,2,13,0.08
2014-2-22,40.3,33.6,26.4,37.1,30.8,24.2,98,90,59,28.97,28.82,6,1,6,0.08
2014-2-23,46.2,38.1,32.9,41.3,36.3,32.4,98,93,76,28.82,28.70,6,1,6,0.08
2014-2-24,44.2,40.9,37.8,43.7,40.3,37.2,98,98,95,28.85,28.76,10,2,10,0.45
2014-2-25,53.4,43.2,36.0,39.9,31.6,25.5,98,66,46,28.88,28.79,24,5,24,0.00
2014-2-26,58.5,46.7,38.7,36.3,30.8,26.2,82,55,39,28.79,28.47,20,4,20,0.00
2014-2-27,55.9,44.5,34.9,41.2,37.2,32.1,95,77,50,28.55,28.38,6,1,8,0.00
2014-2-28,63.9,45.0,28.9,46.6,34.4,28.2,98,72,36,28.52,28.26,10,2,12,0.00
2014-3-1,43.3,40.1,33.8,34.7,27.1,22.3,95,61,46,28.55,28.35,11,3,15,0.00
2014-3-2,45.5,38.6,34.7,45.0,37.3,28.9,98,95,78,28.58,28.41,11,1,11,0.92
2014-3-3,50.0,43.8,41.2,49.5,42.9,40.7,98,97,85,28.73,28.52,11,1,11,0.83
2014-3-4,49.1,44.5,42.1,47.7,43.8,41.6,98,97,93,28.79,28.64,4,0,4,0.33
2014-3-5,56.7,47.7,43.2,55.9,46.9,42.6,98,97,85,28.64,28.32,7,1,8,1.16
2014-3-6,49.5,46.4,44.4,47.9,44.1,41.8,98,92,78,28.85,28.38,12,3,17,0.46
2014-3-7,64.9,46.5,31.6,47.7,40.9,30.9,98,84,42,29.09,28.88,5,1,8,0.08
2014-3-8,51.8,42.1,30.9,51.1,41.5,30.2,98,98,97,28.91,28.61,6,1,6,0.62
2014-3-9,59.0,51.5,47.8,51.7,49.2,47.3,98,92,71,28.82,28.64,10,2,10,0.54
2014-3-10,52.5,47.3,40.1,48.3,43.9,36.7,97,89,55,29.20,28.73,20,3,20,0.12
2014-3-11,64.8,44.5,31.6,42.7,37.8,30.2,98,81,41,29.32,29.17,8,1,8,0.12
2014-3-12,72.0,43.7,26.4,44.8,33.4,25.7,98,74,27,29.17,28.91,8,1,11,0.00
2014-3-13,66.6,42.9,27.1,43.2,34.3,25.9,98,76,36,28.94,28.82,10,1,10,0.12
2014-3-14,55.9,45.1,34.5,48.2,42.0,33.8,98,90,56,29.12,28.73,13,2,16,0.75
2014-3-15,64.8,45.0,31.1,51.2,41.3,30.6,98,88,51,29.09,29.00,6,1,6,0.12
2014-3-16,52.0,45.6,34.3,49.1,44.5,33.8,98,96,89,29.03,28.76,12,2,12,0.83
2014-3-17,48.9,39.7,32.4,37.0,31.8,27.3,98,75,48,29.09,28.76,12,4,20,0.08
2014-3-18,57.2,41.4,30.2,40.8,34.0,29.3,98,78,46,29.09,28.94,8,1,8,0.00
2014-3-19,47.3,38.0,31.1,44.6,36.3,30.1,98,94,82,28.97,28.85,12,2,12,0.17
2014-3-20,56.3,38.9,32.0,39.1,33.1,27.7,98,83,40,29.09,28.97,15,2,15,0.12
2014-3-21,60.1,40.7,27.9,37.7,30.0,23.3,98,70,31,29.09,28.97,10,2,10,0.00
2014-3-22,64.2,41.4,24.3,37.1,24.7,-9.6,97,63,5,29.09,28.94,12,1,12,0.00
2014-3-23,64.2,44.8,31.1,40.5,33.4,28.2,96,70,34,29.06,28.97,12,1,12,0.00
2014-3-24,75.7,48.0,26.4,44.6,26.4,-20.0,98,60,2,29.00,28.67,12,2,12,0.00
2014-3-25,56.3,45.0,37.6,45.8,39.7,34.3,98,82,54,28.70,28.41,12,2,12,0.09
2014-3-26,52.9,42.5,34.9,45.3,40.1,34.4,98,91,63,28.47,28.35,6,1,8,0.21
2014-3-27,54.0,43.0,38.1,45.8,40.6,37.6,98,92,68,28.70,28.38,10,1,13,0.24
2014-3-28,47.1,42.6,40.1,46.0,42.0,39.6,98,98,94,28.67,28.52,9,2,9,1.00
2014-3-29,47.5,41.6,37.4,46.1,40.5,36.9,98,96,81,28.67,28.52,9,1,9,0.41
2014-3-30,53.8,42.6,32.2,43.2,36.8,30.5,98,82,52,28.79,28.64,8,2,10,0.30
2014-3-31,61.5,43.0,27.9,42.2,33.0,27.4,98,74,35,28.76,28.50,15,2,15,0.00
2014-4-1,55.2,45.2,38.1,45.6,40.9,36.0,98,86,62,28.70,28.50,11,2,11,0.00
2014-4-2,61.0,46.2,34.5,44.2,36.3,30.1,98,74,36,28.82,28.67,14,2,14,0.00
2014-4-3,60.1,43.1,31.3,42.5,35.6,30.0,98,78,37,28.82,28.67,8,1,13,0.08
2014-4-4,59.2,44.8,38.7,46.8,39.7,32.9,98,84,48,28.79,28.67,12,1,12,0.20
2014-4-5,54.0,45.8,41.2,49.6,44.5,40.4,98,95,82,28.88,28.76,8,1,8,0.71
2014-4-6,61.5,50.8,44.4,50.4,46.7,43.9,98,87,59,29.12,28.88,11,2,11,0.04
2014-4-7,81.7,56.1,38.5,50.6,44.1,38.0,98,71,29,29.09,28.88,11,1,11,0.00
2014-4-8,71.4,54.1,43.2,52.3,47.6,41.3,97,81,43,29.00,28.85,12,2,12,0.08
2014-4-9,63.3,46.6,33.6,48.0,36.5,29.3,98,73,37,29.03,28.91,14,2,14,0.00
2014-4-10,66.2,47.6,30.2,40.7,35.4,28.6,97,68,36,29.03,28.88,15,2,15,0.00
2014-4-11,68.9,48.6,28.8,44.0,36.8,27.0,97,68,38,28.94,28.79,15,2,15,0.00
2014-4-12,64.2,51.3,37.9,42.4,38.0,32.3,91,64,36,28.94,28.79,18,2,18,0.00
2014-4-13,75.4,51.2,29.5,46.4,19.8,-20.0,98,52,2,29.09,28.94,13,1,13,0.00
2014-4-14,74.8,51.5,28.0,40.7,28.1,-14.3,96,53,3,28.97,28.85,11,3,15,0.00
2014-4-15,59.5,49.3,42.3,40.5,35.5,32.4,82,60,41,29.00,28.85,17,3,17,0.00
2014-4-16,54.5,47.8,43.7,48.0,45.0,40.2,97,90,76,28.91,28.76,4,0,4,0.00
2014-4-17,55.8,48.1,42.1,50.8,46.0,37.3,98,93,75,28.76,28.61,18,1,18,0.00
2014-4-18,64.0,46.5,34.3,43.3,36.6,31.9,98,73,35,28.94,28.70,11,2,12,0.00
2014-4-19,56.8,41.7,30.2,46.4,38.4,29.2,98,89,48,29.00,28.61,12,2,12,0.00
2014-4-20,67.6,48.3,32.0,45.4,38.5,31.5,98,74,35,29.09,28.91,10,1,10,0.00
2014-4-21,72.7,50.6,37.6,46.2,41.6,35.7,98,76,34,28.91,28.61,15,2,15,0.00
2014-4-22,56.8,44.6,39.4,43.6,38.5,32.3,97,81,47,28.73,28.61,13,3,20,0.00
2014-4-23,45.0,42.1,38.5,43.4,40.7,37.1,98,95,86,28.73,28.52,6,2,6,0.00
2014-4-24,58.5,46.2,38.7,53.6,42.1,36.9,98,87,52,28.70,28.47,13,2,13,0.00
2014-4-25,62.6,45.6,37.6,49.0,38.9,33.9,98,81,41,28.70,28.61,15,2,15,0.00
2014-4-26,60.8,46.6,34.9,47.1,35.9,28.5,98,71,35,28.70,28.50,14,2,14,5.57
2014-4-27,52.5,42.4,39.2,43.1,39.3,35.4,98,89,66,28.91,28.47,11,2,11,0.45
2014-4-28,66.0,49.4,38.1,45.8,37.6,31.7,98,70,33,29.14,28.91,12,1,12,0.45
2014-4-29,79.0,57.4,36.7,47.5,37.4,11.1,98,58,10,29.29,29.14,14,2,14,0.45
2014-4-30,87.6,62.3,38.7,45.8,26.2,-14.6,93,47,2,29.20,28.97,13,2,13,0.45
2014-5-1,94.6,65.8,41.7,49.4,30.0,-11.0,86,47,2,29.00,28.73,12,2,12,0.45
2014-5-2,77.5,59.4,40.8,54.1,46.5,39.1,96,68,37,28.91,28.70,16,2,16,0.00
2014-5-3,60.1,51.6,45.9,50.4,46.5,38.6,98,84,52,28.76,28.55,9,1,9,0.33
2014-5-4,55.6,48.4,45.0,51.8,46.9,44.4,98,95,78,28.70,28.55,6,1,6,0.83
2014-5-5,62.8,49.8,43.7,53.8,46.1,41.3,98,88,55,28.85,28.70,10,2,10,0.29
2014-5-6,60.4,51.6,45.1,46.4,42.7,37.0,97,74,44,28.85,28.79,12,2,12,0.00
2014-5-7,71.4,53.5,38.7,49.3,41.4,37.2,98,68,37,28.85,28.67,16,2,16,0.00
2014-5-8,53.2,48.1,41.0,51.8,46.3,39.6,98,93,74,28.70,28.50,9,1,9,0.00
2014-5-9,57.6,46.5,41.0,47.9,43.2,38.0,98,89,57,28.82,28.58,9,2,9,0.00
2014-5-10,60.6,48.6,40.6,49.5,43.0,39.7,98,83,49,29.03,28.79,13,2,13,0.00
2014-5-11,72.1,55.2,43.0,49.3,44.8,40.9,97,72,39,29.12,29.03,12,2,12,0.00
2014-5-12,81.7,57.6,36.5,52.3,26.4,-20.0,98,55,2,29.17,29.03,16,2,16,0.00
2014-5-13,89.8,63.2,37.6,49.8,29.1,-15.6,96,49,2,29.17,29.00,11,2,11,0.00
2014-5-14,95.4,68.5,42.6,56.1,47.9,41.2,97,57,17,29.14,28.85,15,2,15,0.00
2014-5-15,91.6,68.3,46.4,59.6,50.4,45.0,97,60,28,28.91,28.73,8,2,10,0.00
2014-5-16,72.9,59.6,46.8,52.2,45.4,40.5,94,63,35,28.91,28.82,15,3,15,0.00
2014-5-17,72.3,57.3,46.6,50.1,45.5,40.9,94,68,37,28.85,28.64,13,3,13,0.00
2014-5-18,46.9,43.9,41.7,45.1,42.5,40.1,97,95,92,28.64,28.61,2,0,2,0.00
2014-5-19,49.3,46.3,43.3,47.9,45.3,42.5,98,96,94,28.85,28.79,6,1,6,0.00
2014-5-20,77.4,57.6,36.7,55.7,45.1,36.2,98,68,39,28.94,28.82,11,2,11,0.00
2014-5-21,73.8,58.4,48.7,52.1,47.9,44.5,92,71,41,28.97,28.85,16,3,16,0.00
2014-5-22,84.2,63.5,43.5,56.9,50.8,42.3,98,69,35,28.91,28.73,13,2,13,0.00
2014-5-23,70.5,58.7,50.5,62.3,55.2,49.2,98,89,64,28.91,28.79,9,2,9,0.04
2014-5-24,66.4,54.2,44.2,52.0,48.3,43.0,98,83,48,29.00,28.88,13,2,13,0.00
2014-5-25,70.2,54.6,41.7,55.0,48.9,40.9,98,83,46,28.91,28.76,8,1,8,0.16
2014-5-26,69.3,55.8,44.1,54.3,47.8,41.2,98,78,43,28.97,28.76,10,2,10,0.25
2014-5-27,72.7,54.9,40.8,53.3,42.3,35.2,98,68,32,28.94,28.85,16,2,16,0.00
2014-5-28,64.8,50.2,44.1,49.2,45.6,40.1,98,86,50,29.00,28.85,17,1,17,0.96
2014-5-29,68.0,53.3,40.3,51.0,45.9,39.0,98,79,43,29.00,28.91,10,2,10,0.08
2014-5-30,79.9,58.2,34.3,52.3,43.8,33.6,98,64,34,28.91,28.67,14,2,14,0.00
2014-5-31,78.8,60.6,40.3,56.4,47.1,39.2,97,66,36,28.88,28.76,18,3,18,0.00
2014-6-1,75.6,59.6,48.9,52.2,48.8,46.6,95,70,42,28.88,28.73,10,3,13,0.00
2014-6-2,77.9,61.1,41.0,56.7,49.4,40.2,98,70,37,28.79,28.61,12,2,13,0.00
2014-6-3,70.5,58.0,50.5,49.9,46.7,43.6,90,68,45,28.88,28.70,20,3,20,0.00
2014-6-4,75.6,59.9,48.6,55.1,48.1,39.6,95,68,39,28.94,28.82,13,3,13,0.00
2014-6-5,77.2,58.8,39.4,52.0,45.5,38.1,97,66,37,28.97,28.76,17,2,17,0.00
2014-6-6,82.2,60.6,37.8,53.8,40.3,-18.1,98,58,2,28.97,28.79,14,2,14,0.00
2014-6-7,79.3,59.6,40.5,53.0,46.0,38.6,96,65,34,28.97,28.85,14,2,17,0.00
2014-6-8,78.8,62.6,47.7,58.0,52.1,46.1,96,72,41,29.03,28.85,14,2,14,0.00
2014-6-9,74.8,60.1,49.5,53.6,48.9,43.5,95,69,39,28.94,28.85,18,3,18,0.00
2014-6-10,72.3,56.7,43.0,51.1,45.9,40.8,96,70,42,28.91,28.85,10,2,17,0.00
2014-6-11,80.2,63.0,43.2,57.0,49.0,42.1,98,66,36,28.88,28.64,17,2,17,0.00
2014-6-12,71.6,56.1,48.4,57.0,49.1,44.0,98,80,42,28.70,28.61,13,2,20,0.12
2014-6-13,62.1,52.4,49.1,51.7,48.4,42.4,98,88,53,28.94,28.67,15,2,15,1.00
2014-6-14,59.9,51.9,47.3,52.0,48.6,46.4,97,89,71,28.94,28.79,5,1,9,0.04
2014-6-15,63.5,53.4,45.5,55.3,47.3,39.1,97,81,50,28.79,28.64,12,2,12,0.04
2014-6-16,61.9,50.9,44.6,49.2,45.1,40.9,97,81,53,28.76,28.64,13,2,13,0.08
2014-6-17,55.2,50.4,46.4,52.9,48.4,44.7,97,93,86,28.94,28.76,6,1,9,0.00
2014-6-18,70.3,55.7,44.6,50.6,46.7,43.1,95,74,47,28.91,28.82,13,3,13,0.00
2014-6-19,82.9,65.3,40.3,57.2,48.3,39.8,98,60,33,28.88,28.76,13,3,13,0.00
2014-6-20,71.8,58.6,44.8,53.5,45.5,39.6,96,66,36,28.97,28.82,13,3,13,0.00
2014-6-21,77.5,58.4,37.2,53.9,45.4,36.4,98,67,37,28.91,28.79,12,2,12,0.00
2014-6-22,84.6,62.0,40.5,55.5,47.9,39.2,98,65,33,28.91,28.73,12,2,12,0.00
2014-6-23,84.2,63.5,44.1,59.1,49.5,43.0,98,65,32,28.88,28.76,15,2,15,0.00
2014-6-24,78.6,62.0,49.5,58.2,52.9,48.4,97,75,43,28.91,28.82,9,2,12,0.00
2014-6-25,86.4,65.6,47.7,60.5,53.7,46.8,98,71,35,28.82,28.61,12,2,12,0.00
2014-6-26,68.0,61.0,57.6,62.4,57.5,54.2,98,89,64,28.67,28.58,11,2,11,0.00
2014-6-27,72.0,59.3,54.1,61.2,56.1,53.1,97,90,62,28.76,28.55,10,2,10,0.17
2014-6-28,72.7,59.7,53.2,60.5,55.1,50.4,98,86,52,28.88,28.73,10,1,10,0.24
2014-6-29,70.3,58.6,51.4,55.3,52.4,47.7,98,82,53,29.03,28.85,10,2,10,0.09
2014-6-30,87.6,66.0,43.7,60.7,53.0,43.2,98,69,35,29.03,28.76,7,2,10,0.00
2014-7-1,99.7,73.6,46.2,65.1,54.1,43.4,98,62,16,28.79,28.50,13,1,13,0.00
2014-7-2,83.1,67.1,54.1,60.2,55.5,50.7,98,70,37,28.82,28.58,12,2,17,0.00
2014-7-3,74.8,62.5,53.6,54.8,51.0,46.5,95,69,43,28.91,28.79,14,3,14,0.00
2014-7-4,79.7,64.6,49.1,57.5,51.9,47.6,97,68,41,28.85,28.70,12,2,15,0.00
2014-7-5,85.8,66.5,48.9,62.2,53.3,47.8,98,68,36,28.91,28.82,8,1,10,0.00
2014-7-6,89.2,71.2,49.6,63.1,56.8,48.8,98,66,34,28.97,28.82,13,2,13,0.00
2014-7-7,88.0,72.7,53.8,66.8,60.6,52.8,98,69,44,28.94,28.76,19,2,19,0.00
2014-7-8,93.0,76.2,54.7,64.1,58.4,51.5,97,59,34,28.85,28.70,17,2,17,0.00
2014-7-9,84.6,68.2,53.2,61.9,56.7,52.1,98,70,44,28.82,28.67,16,3,16,0.00
2014-7-10,88.3,66.7,46.6,61.4,54.0,45.6,98,68,34,28.76,28.61,13,2,13,0.00
2014-7-11,92.5,70.3,47.3,63.3,55.6,46.2,98,66,34,28.82,28.70,12,2,12,0.00
2014-7-12,95.2,74.2,53.2,69.2,60.2,52.3,98,68,37,28.88,28.76,12,2,12,0.00
2014-7-13,90.1,70.5,55.9,70.7,63.2,55.1,98,80,42,28.88,28.79,10,1,10,0.08
2014-7-14,84.7,69.8,57.6,66.3,61.9,56.7,98,79,46,28.91,28.79,14,2,14,0.00
2014-7-15,92.1,72.7,53.1,68.1,61.1,52.5,98,72,40,28.91,28.70,13,2,13,0.00
2014-7-16,91.9,72.8,53.4,69.1,59.7,52.8,98,69,38,28.82,28.64,17,2,17,0.00
2014-7-17,80.6,65.1,50.9,59.1,52.6,45.0,97,69,33,28.82,28.73,12,3,18,0.04
2014-7-18,78.6,62.4,44.4,58.8,51.3,43.5,98,71,42,28.88,28.76,13,2,13,0.00
2014-7-19,85.3,67.9,52.9,64.3,58.1,51.5,97,73,44,28.91,28.73,15,2,15,0.00
2014-7-20,70.7,61.6,54.1,60.7,51.5,45.9,97,72,44,28.76,28.73,10,3,13,0.00
2014-7-21,81.1,64.3,45.1,56.1,50.5,43.8,97,66,38,28.85,28.70,11,2,11,0.00
2014-7-22,78.1,63.3,52.2,63.3,58.2,50.2,98,85,57,28.85,28.76,7,1,7,0.09
2014-7-23,63.9,57.8,51.4,60.5,56.2,50.8,98,95,72,28.91,28.73,8,1,8,0.00
2014-7-24,65.5,56.4,49.6,60.0,53.3,48.5,98,90,70,29.03,28.88,12,2,12,0.00
2014-7-25,80.4,62.4,46.8,61.3,51.6,46.2,98,73,41,28.97,28.79,14,2,14,0.00
2014-7-26,85.6,66.0,44.4,61.6,53.6,43.9,98,70,35,28.94,28.82,13,2,13,0.00
2014-7-27,88.3,68.7,47.8,67.4,57.4,47.0,98,72,41,28.94,28.79,10,1,10,0.00
2014-7-28,93.0,73.1,53.1,68.7,58.2,51.5,98,66,31,28.94,28.79,12,2,12,0.00
2014-7-29,93.9,72.0,49.8,65.4,56.3,48.8,98,64,30,28.94,28.76,11,2,11,0.00
2014-7-30,91.4,71.1,50.0,66.0,56.0,49.1,98,64,36,28.94,28.79,14,2,14,0.00
2014-7-31,94.1,72.4,48.9,65.9,55.5,48.1,98,62,29,28.91,28.76,11,2,13,0.00
2014-8-1,97.9,72.8,57.0,69.1,60.4,56.1,98,70,34,28.85,28.67,13,1,13,0.00
2014-8-2,88.0,71.4,54.5,66.5,59.4,53.7,98,70,40,28.79,28.70,14,2,14,0.00
2014-8-3,93.2,73.5,53.2,66.8,59.1,52.3,98,66,36,28.85,28.67,13,2,13,0.00
2014-8-4,96.3,73.1,53.4,67.1,57.8,52.3,98,66,26,28.82,28.64,10,1,10,0.00
2014-8-5,82.2,65.5,48.4,62.7,54.0,47.5,98,71,40,28.88,28.73,20,3,20,0.00
2014-8-6,82.9,66.4,54.0,60.8,57.5,51.9,94,76,44,28.94,28.82,13,2,13,0.00
2014-8-7,82.2,62.7,45.0,57.2,50.9,44.2,98,70,41,28.88,28.76,18,2,18,0.00
2014-8-8,79.3,61.1,45.1,58.6,50.0,44.1,98,71,41,28.91,28.82,16,2,16,0.00
2014-8-9,86.7,65.1,43.2,62.2,50.1,42.5,98,65,31,28.91,28.82,15,2,15,0.00
2014-8-10,95.7,70.5,46.8,64.5,56.2,45.7,98,68,30,28.88,28.70,7,1,7,0.00
2014-8-11,106.5,77.3,54.1,69.5,61.3,53.4,98,66,25,28.79,28.58,4,1,4,0.00
2014-8-12,88.2,69.1,61.7,66.5,62.8,58.5,98,83,43,28.73,28.58,15,1,15,0.00
2014-8-13,76.6,66.4,60.4,65.8,60.8,57.2,98,84,58,28.82,28.70,14,2,14,0.45
2014-8-14,75.4,63.2,54.1,61.6,58.3,53.6,98,85,56,28.82,28.73,11,1,11,0.00
2014-8-15,76.5,64.7,58.1,64.5,60.1,57.4,98,86,60,28.85,28.76,8,1,8,0.00
2014-8-16,86.0,69.1,56.7,65.4,59.5,55.6,98,75,44,28.88,28.79,13,2,13,0.05
2014-8-17,88.3,68.9,51.4,65.6,57.6,50.9,98,72,40,28.91,28.76,10,2,10,0.00
2014-8-18,90.7,70.6,52.2,66.9,60.5,51.4,98,75,43,28.82,28.58,11,2,11,0.00
2014-8-19,84.7,69.6,57.9,65.2,59.0,52.8,98,73,40,28.67,28.55,17,3,17,0.00
2014-8-20,78.6,61.8,47.8,54.3,49.5,44.7,95,67,38,28.79,28.61,13,2,13,0.00
2014-8-21,79.2,60.0,44.8,54.4,46.9,31.7,98,69,23,28.82,28.70,18,2,18,0.00
2014-8-22,81.9,60.1,41.0,56.2,48.8,40.0,98,72,36,28.88,28.73,12,2,12,0.00
2014-8-23,87.8,63.8,44.8,59.5,50.1,44.0,98,69,29,28.91,28.79,12,1,12,0.00
2014-8-24,82.2,60.6,45.5,59.7,50.9,44.4,98,75,39,28.82,28.64,10,2,13,0.00
2014-8-25,90.1,64.7,43.2,59.1,51.1,42.6,98,69,30,28.85,28.70,10,1,10,0.00
2014-8-26,92.5,68.1,48.2,60.7,54.2,47.3,98,68,29,28.88,28.70,10,1,10,0.00
2014-8-27,89.6,68.5,50.9,65.2,55.8,50.1,98,70,34,28.85,28.76,13,2,13,0.04
2014-8-28,82.0,64.1,47.7,61.1,54.5,47.0,98,75,42,28.91,28.79,15,2,15,0.00
2014-8-29,75.9,62.9,53.1,65.4,55.0,48.6,98,78,44,28.82,28.73,13,2,13,0.00
2014-8-30,73.4,58.1,49.6,61.8,55.0,48.7,98,90,57,28.82,28.67,10,1,15,0.00
2014-8-31,75.4,58.6,47.7,59.4,50.0,45.5,98,77,40,28.85,28.79,15,1,15,0.00
2014-9-1,80.8,59.5,42.1,58.7,49.8,41.6,98,76,37,28.91,28.76,10,1,10,0.00
2014-9-2,71.1,60.6,51.6,59.2,52.0,46.5,98,77,47,28.79,28.64,13,3,13,0.00
2014-9-3,69.6,55.9,43.5,53.2,49.4,42.7,98,82,47,28.88,28.70,15,2,15,0.00
2014-9-4,84.9,59.1,37.6,55.7,47.0,37.1,98,71,32,28.94,28.76,13,2,13,0.00
2014-9-5,90.9,62.3,40.3,64.7,47.0,31.2,98,68,12,28.91,28.76,10,1,10,0.00
2014-9-6,97.3,65.0,41.7,58.5,47.6,9.0,98,64,4,28.82,28.61,7,1,7,0.00
2014-9-7,89.4,63.0,42.3,63.3,49.3,41.2,98,69,29,28.73,28.58,10,1,10,0.00
2014-9-8,74.7,57.9,41.7,56.7,50.1,40.9,98,78,47,28.73,28.64,17,2,17,0.00
2014-9-9,73.9,58.8,47.8,55.3,50.1,44.8,97,76,44,28.91,28.73,11,2,11,0.00
2014-9-10,80.2,61.3,45.3,57.2,49.5,44.1,98,70,32,28.97,28.85,13,2,14,0.00
2014-9-11,76.1,55.7,40.3,45.9,24.7,-19.9,95,49,2,29.06,28.88,10,2,17,0.00
2014-9-12,89.6,58.5,36.1,47.9,32.2,-13.3,88,54,2,28.88,28.64,6,2,9,0.00
2014-9-13,91.4,59.5,36.1,49.6,32.1,-12.6,90,54,2,28.76,28.58,8,1,8,0.04
2014-9-14,94.8,60.1,36.9,57.0,40.4,-9.1,98,63,2,28.73,28.61,5,1,6,0.00
2014-9-15,95.0,62.3,39.4,61.8,48.7,38.3,98,69,27,28.73,28.58,5,1,6,0.00
2014-9-16,77.2,60.8,50.9,57.3,53.2,49.3,97,79,45,28.70,28.61,11,2,11,0.00
2014-9-17,79.0,63.1,51.4,61.6,55.9,50.9,98,81,43,28.67,28.47,13,1,13,0.00
2014-9-18,67.5,59.7,56.5,60.9,57.2,55.4,98,92,69,28.82,28.52,12,2,12,0.00
2014-9-19,82.4,64.8,51.1,62.8,55.9,49.7,98,78,38,28.88,28.76,11,1,11,0.00
2014-9-20,93.9,65.3,45.1,62.7,52.5,44.6,98,71,27,28.85,28.64,10,1,12,0.00
2014-9-21,90.3,66.7,49.1,61.9,54.4,48.0,98,71,32,28.73,28.61,10,2,10,0.00
2014-9-22,75.0,62.6,53.6,61.7,56.2,52.4,98,82,51,28.79,28.67,11,1,11,0.00
2014-9-23,63.9,57.5,50.2,60.2,56.0,49.6,98,95,72,28.67,28.55,9,2,9,0.08
2014-9-24,66.0,59.1,55.0,61.7,57.9,54.5,98,96,84,28.70,28.55,6,1,9,0.46
2014-9-25,75.0,58.9,50.4,61.4,54.9,49.5,98,88,48,28.73,28.61,16,1,16,0.25
2014-9-26,61.9,55.7,51.6,59.5,54.7,51.1,98,96,87,28.91,28.67,4,0,4,0.33
2014-9-27,73.0,61.5,47.1,56.4,51.7,46.3,97,73,49,28.85,28.82,6,3,15,0.00
2014-9-28,77.2,57.4,41.2,60.2,50.4,40.7,98,81,45,28.82,28.67,8,1,9,0.00
2014-9-29,47.5,47.0,46.6,47.0,46.5,46.0,98,98,98,28.70,28.67,1,1,2,0.00
2014-9-30,64.0,54.6,48.0,52.5,49.2,47.1,98,83,54,28.91,28.73,8,2,13,0.00
2014-10-1,65.5,53.3,45.5,49.8,46.6,42.7,98,81,46,29.00,28.91,6,1,9,0.00
2014-10-2,73.2,51.1,36.3,54.7,46.2,35.8,98,85,42,29.09,28.97,4,0,7,0.00
2014-10-3,83.1,54.8,36.9,58.4,47.7,36.3,98,81,40,29.06,28.91,4,1,4,0.00
2014-10-4,84.9,57.6,43.2,61.7,51.3,42.2,98,83,36,29.03,28.88,4,0,4,0.00
2014-10-5,84.4,59.3,44.4,62.3,53.1,43.9,98,84,40,28.94,28.85,4,1,6,0.00
2014-10-6,85.5,61.1,46.2,64.3,55.0,45.7,98,84,42,28.85,28.70,10,1,10,0.00
2014-10-7,79.7,60.0,47.3,65.1,55.0,46.8,98,86,50,28.76,28.64,7,1,9,0.00
2014-10-8,75.4,58.9,46.9,61.8,54.6,46.1,98,87,53,28.82,28.73,7,1,7,0.00
2014-10-9,78.6,53.8,39.6,59.1,48.1,39.0,98,85,40,28.85,28.76,6,0,6,0.00
2014-10-10,75.4,55.3,37.9,60.0,50.2,37.4,98,85,42,28.88,28.79,11,1,11,0.00
2014-10-11,66.6,54.5,46.6,61.0,52.3,46.0,98,93,57,29.00,28.79,13,1,13,0.25
2014-10-12,72.3,54.0,45.5,57.6,50.1,45.0,98,89,46,29.03,28.85,6,0,6,0.00
2014-10-13,76.6,55.9,40.5,57.1,47.8,39.7,98,78,29,28.85,28.50,15,1,15,0.08
2014-10-14,62.2,53.2,49.5,55.1,51.0,48.9,98,93,69,28.64,28.38,15,1,15,0.41
2014-10-15,58.1,50.3,46.0,55.0,48.9,45.5,98,95,70,28.79,28.32,10,1,10,0.38
2014-10-16,68.7,51.4,43.5,53.5,47.0,42.6,98,87,46,28.82,28.64,7,1,7,0.04
2014-10-17,55.6,51.0,44.2,53.3,50.1,43.7,98,97,88,28.70,28.58,8,1,8,0.58
2014-10-18,69.3,57.3,48.0,63.2,55.4,47.5,98,94,76,28.76,28.64,6,0,6,0.21
2014-10-19,76.6,54.6,45.0,65.6,51.9,44.4,98,92,53,28.64,28.52,6,0,6,0.21
2014-10-20,60.4,53.8,49.5,58.6,53.1,48.7,98,97,91,28.64,28.50,4,0,4,0.29
2014-10-21,58.5,52.0,48.9,56.4,50.7,46.1,98,95,76,28.76,28.61,8,0,8,0.21
2014-10-22,54.1,51.8,50.0,52.9,50.6,45.2,98,96,72,28.61,28.47,6,1,10,1.03
2014-10-23,57.9,49.4,46.0,55.1,48.2,45.5,98,96,74,28.79,28.52,6,0,6,0.58
2014-10-24,55.2,48.5,43.9,51.0,47.0,43.3,98,95,77,28.82,28.52,10,1,10,0.25
2014-10-25,61.2,53.4,44.2,52.0,48.5,43.4,98,84,69,28.61,28.20,15,3,15,0.21
2014-10-26,50.0,44.9,34.9,49.0,43.9,34.0,98,96,84,28.91,28.61,6,1,10,0.42
2014-10-27,62.2,44.7,33.4,50.1,41.5,32.9,98,90,53,28.94,28.79,8,1,8,0.17
2014-10-28,54.7,49.9,46.0,53.8,48.7,41.7,98,96,76,28.79,28.67,8,1,8,0.54
2014-10-29,63.5,52.5,47.3,58.7,50.5,46.6,98,94,71,28.94,28.76,6,0,6,0.21
2014-10-30,58.3,53.3,49.3,54.5,51.8,48.7,98,95,80,28.85,28.55,10,2,10,0.58
2014-10-31,54.9,48.5,37.6,52.2,47.4,37.1,98,96,85,28.67,28.47,11,1,11,0.37
2014-11-1,52.9,44.8,38.5,46.5,42.9,38.0,98,94,72,28.79,28.58,12,1,12,0.17
2014-11-2,54.1,45.9,38.5,51.4,44.7,38.0,98,96,82,28.94,28.79,4,0,4,0.42
2014-11-3,55.2,49.7,46.9,54.5,49.1,46.4,98,98,95,28.94,28.85,3,0,3,0.41
2014-11-4,57.2,50.2,44.4,56.6,49.6,43.7,98,98,92,29.06,28.79,11,0,11,0.58
2014-11-5,57.2,51.1,45.0,54.1,50.1,44.4,98,96,83,29.06,28.76,6,1,6,0.17
2014-11-6,61.9,52.5,45.0,58.5,51.0,44.4,98,95,74,29.09,28.64,21,2,21,0.34
2014-11-7,59.2,42.3,31.8,51.6,40.7,31.3,98,94,71,29.23,29.06,4,0,4,0.17
2014-11-8,57.2,39.0,29.7,48.7,37.3,29.2,98,94,70,29.09,28.82,3,0,3,0.17
2014-11-9,49.8,43.2,35.2,47.9,42.0,34.7,98,95,81,28.85,28.67,12,2,15,0.66
2014-11-10,54.5,39.3,28.6,45.9,37.5,28.1,98,94,67,28.94,28.79,6,1,6,0.17
2014-11-11,44.2,32.7,26.2,30.6,12.2,-16.3,98,54,12,29.06,28.85,18,4,18,0.17
2014-11-12,43.0,32.9,28.6,-10.7,-15.1,-17.7,12,11,9,29.06,28.85,20,5,20,0.00
2014-11-13,36.3,33.6,28.9,12.8,-6.9,-17.3,42,19,11,28.85,28.70,11,4,14,0.00
2014-11-14,45.5,29.7,17.8,20.4,15.2,11.6,85,57,33,29.03,28.73,4,1,6,0.00
2014-11-15,46.2,26.8,17.1,15.5,7.2,-14.1,85,51,9,29.26,29.00,13,2,13,0.00
2014-11-16,52.7,30.1,17.1,16.5,6.4,-12.1,71,43,7,29.23,29.09,10,2,10,0.00
2014-11-17,52.5,30.6,20.3,20.4,12.9,-11.1,72,53,7,29.14,28.94,6,2,6,0.00
2014-11-18,54.0,32.8,20.7,29.4,23.0,15.9,88,70,36,28.94,28.85,3,1,5,0.00
2014-11-19,55.4,41.3,31.1,36.4,29.9,26.3,91,66,36,28.85,28.61,8,2,10,0.04
2014-11-20,50.7,42.9,37.4,45.6,40.4,36.5,98,91,79,28.82,28.70,4,0,4,0.17
2014-11-21,42.4,42.4,42.4,39.7,39.7,39.7,90,90,90,28.73,28.20,9,1,9,1.24
2014-11-22,43.7,40.6,37.9,41.6,39.2,35.1,98,95,77,28.97,28.38,9,1,9,0.62
2014-11-23,46.6,40.3,33.6,46.0,39.8,33.1,98,98,98,29.12,28.91,5,1,5,0.79
2014-11-24,44.8,39.0,33.3,43.0,38.3,32.8,98,97,88,29.17,28.97,6,1,6,0.87
2014-11-25,55.6,50.8,41.7,54.5,50.1,41.2,98,98,94,29.06,28.94,11,2,11,2.67
2014-11-26,58.5,52.5,49.3,56.5,51.7,48.7,98,97,90,29.03,28.76,6,1,6,0.00
2014-11-27,56.5,49.8,44.1,54.8,48.9,42.6,98,97,80,28.79,28.55,7,1,7,0.25
2014-11-28,52.2,44.4,35.8,51.6,43.7,35.1,98,97,92,28.55,28.20,13,2,13,0.79
2014-11-29,36.5,29.7,17.2,35.3,25.5,14.4,98,85,58,28.88,28.32,16,2,16,0.16
2014-11-30,35.6,25.6,14.2,22.0,14.3,9.9,97,65,44,28.91,28.82,17,3,17,0.00
2014-12-1,36.5,26.6,19.4,30.6,21.2,12.6,94,81,55,28.94,28.82,8,1,13,0.00
2014-12-2,39.4,26.7,17.2,34.0,22.0,15.1,98,84,43,28.94,28.64,13,2,13,0.00
2014-12-3,47.8,40.0,30.7,31.1,24.2,18.0,79,54,42,28.67,28.52,18,4,18,0.00
2014-12-4,44.4,39.6,35.4,43.6,38.3,30.0,98,95,79,28.73,28.55,4,0,4,0.13
2014-12-5,52.0,45.5,39.9,51.2,43.8,39.4,98,94,70,28.79,28.61,10,2,10,0.08
2014-12-6,46.6,43.4,41.0,46.0,42.9,40.3,98,98,93,29.03,28.64,5,1,5,0.96
2014-12-7,54.1,42.8,33.3,49.6,39.9,32.8,98,90,60,29.00,28.82,7,2,12,0.00
2014-12-8,56.5,47.3,36.7,46.3,42.2,36.2,98,83,60,28.91,28.73,9,2,9,0.00
2014-12-9,57.6,51.8,46.9,56.4,50.1,44.8,98,94,66,28.73,28.55,7,2,7,0.37
2014-12-10,53.8,49.7,42.3,52.0,48.8,41.4,98,97,85,28.55,28.17,9,2,13,0.29
2014-12-11,58.1,46.4,35.6,51.0,44.1,35.1,98,92,65,28.44,27.99,17,2,17,0.12
2014-12-12,50.5,43.6,39.6,48.2,42.0,38.6,98,94,74,28.85,28.44,6,1,10,0.04
2014-12-13,46.4,38.6,28.8,45.2,37.9,28.1,98,98,95,29.00,28.82,3,0,4,0.08
2014-12-14,46.9,33.3,25.0,36.5,27.8,23.1,98,83,47,28.97,28.76,13,2,13,0.08
2014-12-15,47.7,42.7,38.3,29.0,25.6,22.3,59,51,47,28.79,28.61,15,4,15,0.08
2014-12-16,50.2,42.0,30.6,34.1,30.1,25.6,95,64,49,28.67,28.58,8,2,10,0.08
2014-12-17,48.4,41.6,33.4,40.7,37.5,32.2,98,86,57,28.76,28.58,6,2,8,0.08
2014-12-18,46.4,42.0,36.3,44.8,41.1,35.8,98,97,86,28.76,28.61,7,1,7,0.08
2014-12-19,50.2,41.7,35.4,48.0,40.7,34.6,98,96,85,28.79,28.61,5,1,6,0.08
2014-12-20,53.1,43.0,39.7,52.5,41.9,37.8,98,96,85,28.67,28.38,17,2,17,0.08
2014-12-21,52.7,47.8,44.6,50.8,45.9,43.9,98,93,78,28.91,28.41,23,3,23,0.08
2014-12-22,48.7,41.0,34.0,45.9,39.3,33.5,98,94,66,29.12,28.88,10,1,10,0.00
2014-12-23,44.6,40.6,35.8,44.1,40.1,35.1,98,98,98,29.12,28.79,9,1,9,0.00
2014-12-24,41.4,38.0,35.6,40.8,36.8,33.4,98,95,74,28.82,28.61,12,2,12,0.00
2014-12-25,42.6,34.1,26.6,41.6,33.4,25.9,98,97,86,29.06,28.82,6,1,6,0.00
2014-12-26,40.1,33.5,26.2,39.6,32.9,25.8,98,98,96,29.14,29.03,0,0,0,0.00
2014-12-27,41.0,37.6,36.0,40.5,37.0,34.5,98,97,83,29.09,28.85,11,1,11,0.25
2014-12-28,40.1,36.9,32.5,38.6,36.1,32.0,98,97,88,28.97,28.85,8,2,8,0.58
2014-12-29,32.5,27.9,18.1,32.0,27.3,16.6,98,97,91,29.35,28.88,2,0,2,0.00
2014-12-30,24.6,18.2,13.3,21.9,15.7,11.4,96,90,63,29.47,29.35,3,0,3,0.00
2014-12-31,27.1,20.4,13.6,26.6,19.3,11.8,98,95,91,29.38,29.12,2,0,2,0.08
2015-1-1,30.9,23.1,16.9,30.4,22.2,15.2,98,97,93,29.12,28.94,1,0,1,0.00
2015-1-2,35.4,29.0,21.0,34.9,28.5,20.3,98,98,97,28.97,28.88,0,0,0,0.04